owner,sensor,date,latitude,longitude,vertical_datum,sea_water_temperature,qcFlag 
DISL,ioos:station:DISL:CATA:1,2010-07-07T00:00:00Z,30.3085,-88.1395,0.0,28.62,2 
DISL,ioos:station:DISL:CATA:1,2010-07-07T00:30:00Z,30.3085,-88.1395,0.0,28.59,2 
DISL,ioos:station:DISL:CATA:1,2010-07-07T01:00:00Z,30.3085,-88.1395,0.0,28.52,2 
DISL,ioos:station:DISL:CATA:1,2010-07-07T01:30:00Z,30.3085,-88.1395,0.0,28.5,2 
DISL,ioos:station:DISL:CATA:1,2010-07-07T02:00:00Z,30.3085,-88.1395,0.0,28.42,2 
DISL,ioos:station:DISL:CATA:1,2010-07-07T02:30:00Z,30.3085,-88.1395,0.0,28.39,2 
DISL,ioos:station:DISL:CATA:1,2010-07-07T03:00:00Z,30.3085,-88.1395,0.0,28.41,2 
DISL,ioos:station:DISL:CATA:1,2010-07-07T03:30:00Z,30.3085,-88.1395,0.0,28.34,2 
DISL,ioos:station:DISL:CATA:1,2010-07-07T04:00:00Z,30.3085,-88.1395,0.0,28.3,2 
DISL,ioos:station:DISL:CATA:1,2010-07-07T04:30:00Z,30.3085,-88.1395,0.0,28.27,2 
DISL,ioos:station:DISL:CATA:1,2010-07-07T05:00:00Z,30.3085,-88.1395,0.0,28.25,2 
DISL,ioos:station:DISL:CATA:1,2010-07-07T05:30:00Z,30.3085,-88.1395,0.0,28.24,2 
DISL,ioos:station:DISL:CATA:1,2010-07-07T06:00:00Z,30.3085,-88.1395,0.0,28.24,2 
DISL,ioos:station:DISL:CATA:1,2010-07-07T06:30:00Z,30.3085,-88.1395,0.0,28.25,2 
DISL,ioos:station:DISL:CATA:1,2010-07-07T07:00:00Z,30.3085,-88.1395,0.0,28.23,2 
DISL,ioos:station:DISL:CATA:1,2010-07-07T07:30:00Z,30.3085,-88.1395,0.0,28.2,2 
DISL,ioos:station:DISL:CATA:1,2010-07-07T08:00:00Z,30.3085,-88.1395,0.0,28.21,2 
DISL,ioos:station:DISL:CATA:1,2010-07-07T08:30:00Z,30.3085,-88.1395,0.0,28.16,2 
DISL,ioos:station:DISL:CATA:1,2010-07-07T09:00:00Z,30.3085,-88.1395,0.0,28.14,2 
DISL,ioos:station:DISL:CATA:1,2010-07-07T09:30:00Z,30.3085,-88.1395,0.0,28.11,2 
DISL,ioos:station:DISL:CATA:1,2010-07-07T10:00:00Z,30.3085,-88.1395,0.0,28.09,2 
DISL,ioos:station:DISL:CATA:1,2010-07-07T10:30:00Z,30.3085,-88.1395,0.0,28.06,2 
DISL,ioos:station:DISL:CATA:1,2010-07-07T11:00:00Z,30.3085,-88.1395,0.0,28.0,2 
DISL,ioos:station:DISL:CATA:1,2010-07-07T11:30:00Z,30.3085,-88.1395,0.0,27.98,2 
DISL,ioos:station:DISL:CATA:1,2010-07-07T12:00:00Z,30.3085,-88.1395,0.0,27.98,2 
DISL,ioos:station:DISL:CATA:1,2010-07-07T12:30:00Z,30.3085,-88.1395,0.0,27.97,2 
DISL,ioos:station:DISL:CATA:1,2010-07-07T13:00:00Z,30.3085,-88.1395,0.0,27.96,2 
DISL,ioos:station:DISL:CATA:1,2010-07-07T13:30:00Z,30.3085,-88.1395,0.0,27.99,2 
DISL,ioos:station:DISL:CATA:1,2010-07-07T14:00:00Z,30.3085,-88.1395,0.0,28.06,2 
DISL,ioos:station:DISL:CATA:1,2010-07-07T14:30:00Z,30.3085,-88.1395,0.0,28.19,2 
DISL,ioos:station:DISL:CATA:1,2010-07-07T15:00:00Z,30.3085,-88.1395,0.0,28.23,2 
DISL,ioos:station:DISL:CATA:1,2010-07-07T15:30:00Z,30.3085,-88.1395,0.0,28.31,2 
DISL,ioos:station:DISL:CATA:1,2010-07-07T16:00:00Z,30.3085,-88.1395,0.0,28.47,2 
DISL,ioos:station:DISL:CATA:1,2010-07-07T16:30:00Z,30.3085,-88.1395,0.0,28.5,2 
DISL,ioos:station:DISL:CATA:1,2010-07-07T17:00:00Z,30.3085,-88.1395,0.0,28.6,2 
DISL,ioos:station:DISL:CATA:1,2010-07-07T17:30:00Z,30.3085,-88.1395,0.0,28.72,2 
DISL,ioos:station:DISL:CATA:1,2010-07-07T18:00:00Z,30.3085,-88.1395,0.0,28.87,2 
DISL,ioos:station:DISL:CATA:1,2010-07-07T18:30:00Z,30.3085,-88.1395,0.0,28.9,2 
DISL,ioos:station:DISL:CATA:1,2010-07-07T19:00:00Z,30.3085,-88.1395,0.0,29.0,2 
DISL,ioos:station:DISL:CATA:1,2010-07-07T19:30:00Z,30.3085,-88.1395,0.0,29.09,2 
DISL,ioos:station:DISL:CATA:1,2010-07-07T20:00:00Z,30.3085,-88.1395,0.0,29.17,2 
DISL,ioos:station:DISL:CATA:1,2010-07-07T20:30:00Z,30.3085,-88.1395,0.0,29.29,2 
DISL,ioos:station:DISL:CATA:1,2010-07-07T21:00:00Z,30.3085,-88.1395,0.0,29.31,2 
DISL,ioos:station:DISL:CATA:1,2010-07-07T21:30:00Z,30.3085,-88.1395,0.0,29.6,2 
DISL,ioos:station:DISL:CATA:1,2010-07-07T22:00:00Z,30.3085,-88.1395,0.0,29.62,2 
DISL,ioos:station:DISL:CATA:1,2010-07-07T22:30:00Z,30.3085,-88.1395,0.0,29.71,2 
DISL,ioos:station:DISL:CATA:1,2010-07-07T23:00:00Z,30.3085,-88.1395,0.0,29.71,2 
DISL,ioos:station:DISL:CATA:1,2010-07-07T23:30:00Z,30.3085,-88.1395,0.0,29.62,2 
DISL,ioos:station:DISL:CATA:1,2010-07-08T00:00:00Z,30.3085,-88.1395,0.0,29.58,2 
DISL,ioos:station:DISL:CATA:1,2010-07-08T00:30:00Z,30.3085,-88.1395,0.0,29.52,2 
DISL,ioos:station:DISL:CATA:1,2010-07-08T01:00:00Z,30.3085,-88.1395,0.0,29.45,2 
DISL,ioos:station:DISL:CATA:1,2010-07-08T01:30:00Z,30.3085,-88.1395,0.0,29.39,2 
DISL,ioos:station:DISL:CATA:1,2010-07-08T02:00:00Z,30.3085,-88.1395,0.0,29.35,2 
DISL,ioos:station:DISL:CATA:1,2010-07-08T02:30:00Z,30.3085,-88.1395,0.0,29.34,2 
DISL,ioos:station:DISL:CATA:1,2010-07-08T03:00:00Z,30.3085,-88.1395,0.0,29.32,2 
DISL,ioos:station:DISL:CATA:1,2010-07-08T03:30:00Z,30.3085,-88.1395,0.0,29.27,2 
DISL,ioos:station:DISL:CATA:1,2010-07-08T04:00:00Z,30.3085,-88.1395,0.0,29.21,2 
DISL,ioos:station:DISL:CATA:1,2010-07-08T04:30:00Z,30.3085,-88.1395,0.0,29.19,2 
DISL,ioos:station:DISL:CATA:1,2010-07-08T05:00:00Z,30.3085,-88.1395,0.0,29.19,2 
DISL,ioos:station:DISL:CATA:1,2010-07-08T05:30:00Z,30.3085,-88.1395,0.0,29.18,2 
DISL,ioos:station:DISL:CATA:1,2010-07-08T06:00:00Z,30.3085,-88.1395,0.0,29.18,2 
DISL,ioos:station:DISL:CATA:1,2010-07-08T06:30:00Z,30.3085,-88.1395,0.0,29.13,2 
DISL,ioos:station:DISL:CATA:1,2010-07-08T07:00:00Z,30.3085,-88.1395,0.0,29.15,2 
DISL,ioos:station:DISL:CATA:1,2010-07-08T07:30:00Z,30.3085,-88.1395,0.0,29.06,2 
DISL,ioos:station:DISL:CATA:1,2010-07-08T08:00:00Z,30.3085,-88.1395,0.0,29.11,2 
DISL,ioos:station:DISL:CATA:1,2010-07-08T08:30:00Z,30.3085,-88.1395,0.0,29.08,2 
DISL,ioos:station:DISL:CATA:1,2010-07-08T09:00:00Z,30.3085,-88.1395,0.0,29.12,2 
DISL,ioos:station:DISL:CATA:1,2010-07-08T09:30:00Z,30.3085,-88.1395,0.0,29.15,2 
DISL,ioos:station:DISL:CATA:1,2010-07-08T10:00:00Z,30.3085,-88.1395,0.0,29.19,2 
DISL,ioos:station:DISL:CATA:1,2010-07-08T10:30:00Z,30.3085,-88.1395,0.0,29.13,2 
DISL,ioos:station:DISL:CATA:1,2010-07-08T11:00:00Z,30.3085,-88.1395,0.0,29.09,2 
DISL,ioos:station:DISL:CATA:1,2010-07-08T11:30:00Z,30.3085,-88.1395,0.0,29.08,2 
DISL,ioos:station:DISL:CATA:1,2010-07-08T12:00:00Z,30.3085,-88.1395,0.0,29.07,2 
DISL,ioos:station:DISL:CATA:1,2010-07-08T12:30:00Z,30.3085,-88.1395,0.0,29.15,2 
DISL,ioos:station:DISL:CATA:1,2010-07-08T13:00:00Z,30.3085,-88.1395,0.0,29.23,2 
DISL,ioos:station:DISL:CATA:1,2010-07-08T13:30:00Z,30.3085,-88.1395,0.0,29.29,2 
DISL,ioos:station:DISL:CATA:1,2010-07-08T14:00:00Z,30.3085,-88.1395,0.0,29.31,2 
DISL,ioos:station:DISL:CATA:1,2010-07-08T14:30:00Z,30.3085,-88.1395,0.0,29.3,2 
DISL,ioos:station:DISL:CATA:1,2010-07-08T15:00:00Z,30.3085,-88.1395,0.0,29.31,2 
DISL,ioos:station:DISL:CATA:1,2010-07-08T15:30:00Z,30.3085,-88.1395,0.0,29.31,2 
DISL,ioos:station:DISL:CATA:1,2010-07-08T16:00:00Z,30.3085,-88.1395,0.0,29.29,2 
DISL,ioos:station:DISL:CATA:1,2010-07-08T16:30:00Z,30.3085,-88.1395,0.0,29.47,2 
DISL,ioos:station:DISL:CATA:1,2010-07-08T17:00:00Z,30.3085,-88.1395,0.0,30.16,2 
DISL,ioos:station:DISL:CATA:1,2010-07-08T17:30:00Z,30.3085,-88.1395,0.0,30.39,2 
DISL,ioos:station:DISL:CATA:1,2010-07-08T18:00:00Z,30.3085,-88.1395,0.0,30.88,2 
DISL,ioos:station:DISL:CATA:1,2010-07-08T18:30:00Z,30.3085,-88.1395,0.0,31.06,2 
DISL,ioos:station:DISL:CATA:1,2010-07-08T19:00:00Z,30.3085,-88.1395,0.0,30.81,2 
DISL,ioos:station:DISL:CATA:1,2010-07-08T19:30:00Z,30.3085,-88.1395,0.0,30.51,2 
DISL,ioos:station:DISL:CATA:1,2010-07-08T20:00:00Z,30.3085,-88.1395,0.0,30.37,2 
DISL,ioos:station:DISL:CATA:1,2010-07-08T20:30:00Z,30.3085,-88.1395,0.0,30.15,2 
DISL,ioos:station:DISL:CATA:1,2010-07-08T21:00:00Z,30.3085,-88.1395,0.0,30.06,2 
DISL,ioos:station:DISL:CATA:1,2010-07-08T21:30:00Z,30.3085,-88.1395,0.0,30.09,2 
DISL,ioos:station:DISL:CATA:1,2010-07-08T22:00:00Z,30.3085,-88.1395,0.0,30.06,2 
DISL,ioos:station:DISL:CATA:1,2010-07-08T22:30:00Z,30.3085,-88.1395,0.0,29.95,2 
DISL,ioos:station:DISL:CATA:1,2010-07-08T23:00:00Z,30.3085,-88.1395,0.0,29.86,2 
DISL,ioos:station:DISL:CATA:1,2010-07-08T23:30:00Z,30.3085,-88.1395,0.0,29.8,2 
DISL,ioos:station:DISL:CATA:1,2010-07-09T00:00:00Z,30.3085,-88.1395,0.0,29.66,2 
DISL,ioos:station:DISL:CATA:1,2010-07-09T00:30:00Z,30.3085,-88.1395,0.0,29.6,2 
DISL,ioos:station:DISL:CATA:1,2010-07-09T01:00:00Z,30.3085,-88.1395,0.0,29.59,2 
DISL,ioos:station:DISL:CATA:1,2010-07-09T01:30:00Z,30.3085,-88.1395,0.0,29.61,2 
DISL,ioos:station:DISL:CATA:1,2010-07-09T02:00:00Z,30.3085,-88.1395,0.0,29.63,2 
DISL,ioos:station:DISL:CATA:1,2010-07-09T02:30:00Z,30.3085,-88.1395,0.0,29.56,2 
DISL,ioos:station:DISL:CATA:1,2010-07-09T03:00:00Z,30.3085,-88.1395,0.0,29.47,2 
DISL,ioos:station:DISL:CATA:1,2010-07-09T03:30:00Z,30.3085,-88.1395,0.0,29.44,2 
DISL,ioos:station:DISL:CATA:1,2010-07-09T04:00:00Z,30.3085,-88.1395,0.0,29.41,2 
DISL,ioos:station:DISL:CATA:1,2010-07-09T04:30:00Z,30.3085,-88.1395,0.0,29.47,2 
DISL,ioos:station:DISL:CATA:1,2010-07-09T05:00:00Z,30.3085,-88.1395,0.0,29.57,2 
DISL,ioos:station:DISL:CATA:1,2010-07-09T05:30:00Z,30.3085,-88.1395,0.0,29.6,2 
DISL,ioos:station:DISL:CATA:1,2010-07-09T06:00:00Z,30.3085,-88.1395,0.0,29.7,2 
DISL,ioos:station:DISL:CATA:1,2010-07-09T06:30:00Z,30.3085,-88.1395,0.0,30.26,2 
DISL,ioos:station:DISL:CATA:1,2010-07-09T07:00:00Z,30.3085,-88.1395,0.0,30.63,2 
DISL,ioos:station:DISL:CATA:1,2010-07-09T07:30:00Z,30.3085,-88.1395,0.0,30.82,2 
DISL,ioos:station:DISL:CATA:1,2010-07-09T08:00:00Z,30.3085,-88.1395,0.0,31.01,2 
DISL,ioos:station:DISL:CATA:1,2010-07-09T08:30:00Z,30.3085,-88.1395,0.0,30.97,2 
DISL,ioos:station:DISL:CATA:1,2010-07-09T09:30:00Z,30.3085,-88.1395,0.0,30.29,2 
DISL,ioos:station:DISL:CATA:1,2010-07-09T10:00:00Z,30.3085,-88.1395,0.0,29.93,2 
DISL,ioos:station:DISL:CATA:1,2010-07-09T10:30:00Z,30.3085,-88.1395,0.0,29.85,2 
DISL,ioos:station:DISL:CATA:1,2010-07-09T11:00:00Z,30.3085,-88.1395,0.0,29.8,2 
DISL,ioos:station:DISL:CATA:1,2010-07-09T11:30:00Z,30.3085,-88.1395,0.0,29.78,2 
DISL,ioos:station:DISL:CATA:1,2010-07-09T12:00:00Z,30.3085,-88.1395,0.0,29.79,2 
DISL,ioos:station:DISL:CATA:1,2010-07-09T12:30:00Z,30.3085,-88.1395,0.0,29.83,2 
DISL,ioos:station:DISL:CATA:1,2010-07-09T13:00:00Z,30.3085,-88.1395,0.0,29.88,2 
DISL,ioos:station:DISL:CATA:1,2010-07-09T13:30:00Z,30.3085,-88.1395,0.0,29.96,2 
DISL,ioos:station:DISL:CATA:1,2010-07-09T14:00:00Z,30.3085,-88.1395,0.0,30.04,2 
DISL,ioos:station:DISL:CATA:1,2010-07-09T14:30:00Z,30.3085,-88.1395,0.0,30.15,2 
DISL,ioos:station:DISL:CATA:1,2010-07-09T15:00:00Z,30.3085,-88.1395,0.0,30.2,2 
DISL,ioos:station:DISL:CATA:1,2010-07-09T15:30:00Z,30.3085,-88.1395,0.0,30.21,2 
DISL,ioos:station:DISL:CATA:1,2010-07-09T16:00:00Z,30.3085,-88.1395,0.0,30.17,2 
DISL,ioos:station:DISL:CATA:1,2010-07-09T16:30:00Z,30.3085,-88.1395,0.0,30.15,2 
DISL,ioos:station:DISL:CATA:1,2010-07-09T17:00:00Z,30.3085,-88.1395,0.0,30.14,2 
DISL,ioos:station:DISL:CATA:1,2010-07-09T17:30:00Z,30.3085,-88.1395,0.0,30.16,2 
DISL,ioos:station:DISL:CATA:1,2010-07-09T18:00:00Z,30.3085,-88.1395,0.0,30.14,2 
DISL,ioos:station:DISL:CATA:1,2010-07-09T18:30:00Z,30.3085,-88.1395,0.0,30.15,2 
DISL,ioos:station:DISL:CATA:1,2010-07-09T19:00:00Z,30.3085,-88.1395,0.0,30.65,2 
DISL,ioos:station:DISL:CATA:1,2010-07-09T19:30:00Z,30.3085,-88.1395,0.0,30.62,2 
DISL,ioos:station:DISL:CATA:1,2010-07-09T20:00:00Z,30.3085,-88.1395,0.0,30.5,2 
DISL,ioos:station:DISL:CATA:1,2010-07-09T20:30:00Z,30.3085,-88.1395,0.0,30.61,2 
DISL,ioos:station:DISL:CATA:1,2010-07-09T21:00:00Z,30.3085,-88.1395,0.0,30.73,2 
DISL,ioos:station:DISL:CATA:1,2010-07-09T21:30:00Z,30.3085,-88.1395,0.0,30.7,2 
DISL,ioos:station:DISL:CATA:1,2010-07-09T22:00:00Z,30.3085,-88.1395,0.0,30.51,2 
DISL,ioos:station:DISL:CATA:1,2010-07-09T22:30:00Z,30.3085,-88.1395,0.0,30.47,2 
DISL,ioos:station:DISL:CATA:1,2010-07-09T23:00:00Z,30.3085,-88.1395,0.0,30.42,2 
DISL,ioos:station:DISL:CATA:1,2010-07-09T23:30:00Z,30.3085,-88.1395,0.0,30.44,2 
DISL,ioos:station:DISL:CATA:1,2010-07-10T00:00:00Z,30.3085,-88.1395,0.0,30.38,2 
DISL,ioos:station:DISL:CATA:1,2010-07-10T00:30:00Z,30.3085,-88.1395,0.0,30.24,2 
DISL,ioos:station:DISL:CATA:1,2010-07-10T01:00:00Z,30.3085,-88.1395,0.0,30.17,2 
DISL,ioos:station:DISL:CATA:1,2010-07-10T01:30:00Z,30.3085,-88.1395,0.0,30.11,2 
DISL,ioos:station:DISL:CATA:1,2010-07-10T02:00:00Z,30.3085,-88.1395,0.0,30.06,2 
DISL,ioos:station:DISL:CATA:1,2010-07-10T02:30:00Z,30.3085,-88.1395,0.0,30.03,2 
DISL,ioos:station:DISL:CATA:1,2010-07-10T03:00:00Z,30.3085,-88.1395,0.0,29.99,2 
DISL,ioos:station:DISL:CATA:1,2010-07-10T03:30:00Z,30.3085,-88.1395,0.0,29.95,2 
DISL,ioos:station:DISL:CATA:1,2010-07-10T04:00:00Z,30.3085,-88.1395,0.0,29.9,2 
DISL,ioos:station:DISL:CATA:1,2010-07-10T04:30:00Z,30.3085,-88.1395,0.0,29.75,2 
DISL,ioos:station:DISL:CATA:1,2010-07-10T05:00:00Z,30.3085,-88.1395,0.0,29.73,2 
DISL,ioos:station:DISL:CATA:1,2010-07-10T05:30:00Z,30.3085,-88.1395,0.0,29.68,2 
DISL,ioos:station:DISL:CATA:1,2010-07-10T06:00:00Z,30.3085,-88.1395,0.0,29.67,2 
DISL,ioos:station:DISL:CATA:1,2010-07-10T06:30:00Z,30.3085,-88.1395,0.0,30.19,2 
DISL,ioos:station:DISL:CATA:1,2010-07-10T07:00:00Z,30.3085,-88.1395,0.0,30.47,2 
DISL,ioos:station:DISL:CATA:1,2010-07-10T07:30:00Z,30.3085,-88.1395,0.0,30.48,2 
DISL,ioos:station:DISL:CATA:1,2010-07-10T08:00:00Z,30.3085,-88.1395,0.0,30.45,2 
DISL,ioos:station:DISL:CATA:1,2010-07-10T08:30:00Z,30.3085,-88.1395,0.0,30.36,2 
DISL,ioos:station:DISL:CATA:1,2010-07-10T09:00:00Z,30.3085,-88.1395,0.0,30.66,2 
DISL,ioos:station:DISL:CATA:1,2010-07-10T09:30:00Z,30.3085,-88.1395,0.0,30.63,2 
DISL,ioos:station:DISL:CATA:1,2010-07-10T10:00:00Z,30.3085,-88.1395,0.0,30.34,2 
DISL,ioos:station:DISL:CATA:1,2010-07-10T10:30:00Z,30.3085,-88.1395,0.0,30.28,2 
DISL,ioos:station:DISL:CATA:1,2010-07-10T11:00:00Z,30.3085,-88.1395,0.0,30.15,2 
DISL,ioos:station:DISL:CATA:1,2010-07-10T11:30:00Z,30.3085,-88.1395,0.0,30.08,2 
DISL,ioos:station:DISL:CATA:1,2010-07-10T12:00:00Z,30.3085,-88.1395,0.0,30.02,2 
DISL,ioos:station:DISL:CATA:1,2010-07-10T12:30:00Z,30.3085,-88.1395,0.0,30.03,2 
DISL,ioos:station:DISL:CATA:1,2010-07-10T13:00:00Z,30.3085,-88.1395,0.0,30.08,2 
DISL,ioos:station:DISL:CATA:1,2010-07-10T13:30:00Z,30.3085,-88.1395,0.0,30.14,2 
DISL,ioos:station:DISL:CATA:1,2010-07-10T14:00:00Z,30.3085,-88.1395,0.0,30.19,2 
DISL,ioos:station:DISL:CATA:1,2010-07-10T14:30:00Z,30.3085,-88.1395,0.0,30.3,2 
DISL,ioos:station:DISL:CATA:1,2010-07-10T15:00:00Z,30.3085,-88.1395,0.0,30.39,2 
DISL,ioos:station:DISL:CATA:1,2010-07-10T15:30:00Z,30.3085,-88.1395,0.0,30.5,2 
DISL,ioos:station:DISL:CATA:1,2010-07-10T16:00:00Z,30.3085,-88.1395,0.0,30.59,2 
DISL,ioos:station:DISL:CATA:1,2010-07-10T16:30:00Z,30.3085,-88.1395,0.0,30.67,2 
DISL,ioos:station:DISL:CATA:1,2010-07-10T17:00:00Z,30.3085,-88.1395,0.0,30.79,2 
DISL,ioos:station:DISL:CATA:1,2010-07-10T17:30:00Z,30.3085,-88.1395,0.0,30.78,2 
DISL,ioos:station:DISL:CATA:1,2010-07-10T18:00:00Z,30.3085,-88.1395,0.0,30.75,2 
DISL,ioos:station:DISL:CATA:1,2010-07-10T18:30:00Z,30.3085,-88.1395,0.0,30.75,2 
DISL,ioos:station:DISL:CATA:1,2010-07-10T19:00:00Z,30.3085,-88.1395,0.0,30.71,2 
DISL,ioos:station:DISL:CATA:1,2010-07-10T19:30:00Z,30.3085,-88.1395,0.0,30.68,2 
DISL,ioos:station:DISL:CATA:1,2010-07-10T20:00:00Z,30.3085,-88.1395,0.0,30.63,2 
DISL,ioos:station:DISL:CATA:1,2010-07-10T20:30:00Z,30.3085,-88.1395,0.0,30.46,2 
DISL,ioos:station:DISL:CATA:1,2010-07-10T21:00:00Z,30.3085,-88.1395,0.0,30.58,2 
DISL,ioos:station:DISL:CATA:1,2010-07-10T21:30:00Z,30.3085,-88.1395,0.0,30.93,2 
DISL,ioos:station:DISL:CATA:1,2010-07-10T22:00:00Z,30.3085,-88.1395,0.0,30.96,2 
DISL,ioos:station:DISL:CATA:1,2010-07-10T22:30:00Z,30.3085,-88.1395,0.0,30.84,2 
DISL,ioos:station:DISL:CATA:1,2010-07-10T23:00:00Z,30.3085,-88.1395,0.0,30.66,2 
DISL,ioos:station:DISL:CATA:1,2010-07-10T23:30:00Z,30.3085,-88.1395,0.0,30.55,2 
DISL,ioos:station:DISL:CATA:1,2010-07-11T00:00:00Z,30.3085,-88.1395,0.0,30.48,2 
DISL,ioos:station:DISL:CATA:1,2010-07-11T00:30:00Z,30.3085,-88.1395,0.0,30.45,2 
DISL,ioos:station:DISL:CATA:1,2010-07-11T01:00:00Z,30.3085,-88.1395,0.0,30.37,2 
DISL,ioos:station:DISL:CATA:1,2010-07-11T01:30:00Z,30.3085,-88.1395,0.0,30.28,2 
DISL,ioos:station:DISL:CATA:1,2010-07-11T02:00:00Z,30.3085,-88.1395,0.0,30.17,2 
DISL,ioos:station:DISL:CATA:1,2010-07-11T02:30:00Z,30.3085,-88.1395,0.0,30.04,2 
DISL,ioos:station:DISL:CATA:1,2010-07-11T03:00:00Z,30.3085,-88.1395,0.0,29.99,2 
DISL,ioos:station:DISL:CATA:1,2010-07-11T03:30:00Z,30.3085,-88.1395,0.0,29.98,2 
DISL,ioos:station:DISL:CATA:1,2010-07-11T04:00:00Z,30.3085,-88.1395,0.0,29.96,2 
DISL,ioos:station:DISL:CATA:1,2010-07-11T04:30:00Z,30.3085,-88.1395,0.0,29.97,2 
DISL,ioos:station:DISL:CATA:1,2010-07-11T05:00:00Z,30.3085,-88.1395,0.0,29.88,2 
DISL,ioos:station:DISL:CATA:1,2010-07-11T05:30:00Z,30.3085,-88.1395,0.0,29.67,2 
DISL,ioos:station:DISL:CATA:1,2010-07-11T06:00:00Z,30.3085,-88.1395,0.0,29.54,2 
DISL,ioos:station:DISL:CATA:1,2010-07-11T06:30:00Z,30.3085,-88.1395,0.0,29.51,2 
DISL,ioos:station:DISL:CATA:1,2010-07-11T07:00:00Z,30.3085,-88.1395,0.0,29.58,2 
DISL,ioos:station:DISL:CATA:1,2010-07-11T07:30:00Z,30.3085,-88.1395,0.0,29.75,2 
DISL,ioos:station:DISL:CATA:1,2010-07-11T08:00:00Z,30.3085,-88.1395,0.0,29.9,2 
DISL,ioos:station:DISL:CATA:1,2010-07-11T08:30:00Z,30.3085,-88.1395,0.0,30.47,2 
DISL,ioos:station:DISL:CATA:1,2010-07-11T09:00:00Z,30.3085,-88.1395,0.0,30.69,2 
DISL,ioos:station:DISL:CATA:1,2010-07-11T09:30:00Z,30.3085,-88.1395,0.0,30.74,2 
DISL,ioos:station:DISL:CATA:1,2010-07-11T10:00:00Z,30.3085,-88.1395,0.0,30.56,2 
DISL,ioos:station:DISL:CATA:1,2010-07-11T10:30:00Z,30.3085,-88.1395,0.0,30.43,2 
DISL,ioos:station:DISL:CATA:1,2010-07-11T11:00:00Z,30.3085,-88.1395,0.0,30.34,2 
DISL,ioos:station:DISL:CATA:1,2010-07-11T11:30:00Z,30.3085,-88.1395,0.0,30.32,2 
DISL,ioos:station:DISL:CATA:1,2010-07-11T12:00:00Z,30.3085,-88.1395,0.0,30.27,2 
DISL,ioos:station:DISL:CATA:1,2010-07-11T12:30:00Z,30.3085,-88.1395,0.0,30.26,2 
DISL,ioos:station:DISL:CATA:1,2010-07-11T13:00:00Z,30.3085,-88.1395,0.0,30.23,2 
DISL,ioos:station:DISL:CATA:1,2010-07-11T13:30:00Z,30.3085,-88.1395,0.0,30.28,2 
DISL,ioos:station:DISL:CATA:1,2010-07-11T14:00:00Z,30.3085,-88.1395,0.0,30.36,2 
DISL,ioos:station:DISL:CATA:1,2010-07-11T14:30:00Z,30.3085,-88.1395,0.0,30.43,2 
DISL,ioos:station:DISL:CATA:1,2010-07-11T15:00:00Z,30.3085,-88.1395,0.0,30.53,2 
DISL,ioos:station:DISL:CATA:1,2010-07-11T15:30:00Z,30.3085,-88.1395,0.0,30.67,2 
DISL,ioos:station:DISL:CATA:1,2010-07-11T16:00:00Z,30.3085,-88.1395,0.0,30.77,2 
DISL,ioos:station:DISL:CATA:1,2010-07-11T16:30:00Z,30.3085,-88.1395,0.0,30.86,2 
DISL,ioos:station:DISL:CATA:1,2010-07-11T17:00:00Z,30.3085,-88.1395,0.0,30.77,2 
DISL,ioos:station:DISL:CATA:1,2010-07-11T17:30:00Z,30.3085,-88.1395,0.0,30.56,2 
DISL,ioos:station:DISL:CATA:1,2010-07-11T18:00:00Z,30.3085,-88.1395,0.0,30.52,2 
DISL,ioos:station:DISL:CATA:1,2010-07-11T18:30:00Z,30.3085,-88.1395,0.0,30.52,2 
DISL,ioos:station:DISL:CATA:1,2010-07-11T19:00:00Z,30.3085,-88.1395,0.0,30.52,2 
DISL,ioos:station:DISL:CATA:1,2010-07-11T19:30:00Z,30.3085,-88.1395,0.0,30.57,2 
DISL,ioos:station:DISL:CATA:1,2010-07-11T20:00:00Z,30.3085,-88.1395,0.0,30.59,2 
DISL,ioos:station:DISL:CATA:1,2010-07-11T20:30:00Z,30.3085,-88.1395,0.0,30.54,2 
DISL,ioos:station:DISL:CATA:1,2010-07-11T21:00:00Z,30.3085,-88.1395,0.0,30.5,2 
DISL,ioos:station:DISL:CATA:1,2010-07-11T21:30:00Z,30.3085,-88.1395,0.0,30.45,2 
DISL,ioos:station:DISL:CATA:1,2010-07-11T22:00:00Z,30.3085,-88.1395,0.0,30.58,2 
DISL,ioos:station:DISL:CATA:1,2010-07-11T22:30:00Z,30.3085,-88.1395,0.0,30.7,2 
DISL,ioos:station:DISL:CATA:1,2010-07-11T23:00:00Z,30.3085,-88.1395,0.0,30.77,2 
DISL,ioos:station:DISL:CATA:1,2010-07-11T23:30:00Z,30.3085,-88.1395,0.0,30.76,2 
DISL,ioos:station:DISL:CATA:1,2010-07-12T00:00:00Z,30.3085,-88.1395,0.0,30.45,2 
DISL,ioos:station:DISL:CATA:1,2010-07-12T00:30:00Z,30.3085,-88.1395,0.0,30.23,2 
DISL,ioos:station:DISL:CATA:1,2010-07-12T01:00:00Z,30.3085,-88.1395,0.0,30.09,2 
DISL,ioos:station:DISL:CATA:1,2010-07-12T01:30:00Z,30.3085,-88.1395,0.0,29.9,2 
DISL,ioos:station:DISL:CATA:1,2010-07-12T02:00:00Z,30.3085,-88.1395,0.0,29.77,2 
DISL,ioos:station:DISL:CATA:1,2010-07-12T02:30:00Z,30.3085,-88.1395,0.0,29.85,2 
DISL,ioos:station:DISL:CATA:1,2010-07-12T03:00:00Z,30.3085,-88.1395,0.0,29.94,2 
DISL,ioos:station:DISL:CATA:1,2010-07-12T03:30:00Z,30.3085,-88.1395,0.0,29.91,2 
DISL,ioos:station:DISL:CATA:1,2010-07-12T04:00:00Z,30.3085,-88.1395,0.0,29.8,2 
DISL,ioos:station:DISL:CATA:1,2010-07-12T04:30:00Z,30.3085,-88.1395,0.0,29.42,2 
DISL,ioos:station:DISL:CATA:1,2010-07-12T05:00:00Z,30.3085,-88.1395,0.0,29.36,2 
DISL,ioos:station:DISL:CATA:1,2010-07-12T05:30:00Z,30.3085,-88.1395,0.0,29.48,2 
DISL,ioos:station:DISL:CATA:1,2010-07-12T06:00:00Z,30.3085,-88.1395,0.0,29.6,2 
DISL,ioos:station:DISL:CATA:1,2010-07-12T06:30:00Z,30.3085,-88.1395,0.0,29.38,2 
DISL,ioos:station:DISL:CATA:1,2010-07-12T07:00:00Z,30.3085,-88.1395,0.0,29.45,2 
DISL,ioos:station:DISL:CATA:1,2010-07-12T07:30:00Z,30.3085,-88.1395,0.0,30.18,2 
DISL,ioos:station:DISL:CATA:1,2010-07-12T08:00:00Z,30.3085,-88.1395,0.0,30.49,2 
DISL,ioos:station:DISL:CATA:1,2010-07-12T08:30:00Z,30.3085,-88.1395,0.0,29.87,2 
DISL,ioos:station:DISL:CATA:1,2010-07-12T09:00:00Z,30.3085,-88.1395,0.0,29.87,2 
DISL,ioos:station:DISL:CATA:1,2010-07-12T09:30:00Z,30.3085,-88.1395,0.0,29.6,2 
DISL,ioos:station:DISL:CATA:1,2010-07-12T10:00:00Z,30.3085,-88.1395,0.0,29.44,2 
DISL,ioos:station:DISL:CATA:1,2010-07-12T10:30:00Z,30.3085,-88.1395,0.0,29.53,2 
DISL,ioos:station:DISL:CATA:1,2010-07-12T11:00:00Z,30.3085,-88.1395,0.0,29.56,2 
DISL,ioos:station:DISL:CATA:1,2010-07-12T11:30:00Z,30.3085,-88.1395,0.0,29.51,2 
DISL,ioos:station:DISL:CATA:1,2010-07-12T12:00:00Z,30.3085,-88.1395,0.0,29.58,2 
DISL,ioos:station:DISL:CATA:1,2010-07-12T12:30:00Z,30.3085,-88.1395,0.0,29.57,2 
DISL,ioos:station:DISL:CATA:1,2010-07-12T13:00:00Z,30.3085,-88.1395,0.0,29.61,2 
DISL,ioos:station:DISL:CATA:1,2010-07-12T13:30:00Z,30.3085,-88.1395,0.0,29.62,2 
DISL,ioos:station:DISL:CATA:1,2010-07-12T14:00:00Z,30.3085,-88.1395,0.0,29.58,2 
DISL,ioos:station:DISL:CATA:1,2010-07-12T14:30:00Z,30.3085,-88.1395,0.0,29.65,2 
DISL,ioos:station:DISL:CATA:1,2010-07-12T15:00:00Z,30.3085,-88.1395,0.0,29.87,2 
DISL,ioos:station:DISL:CATA:1,2010-07-12T15:30:00Z,30.3085,-88.1395,0.0,30.14,2 
DISL,ioos:station:DISL:CATA:1,2010-07-12T16:00:00Z,30.3085,-88.1395,0.0,30.32,2 
DISL,ioos:station:DISL:CATA:1,2010-07-12T16:30:00Z,30.3085,-88.1395,0.0,30.46,2 
DISL,ioos:station:DISL:CATA:1,2010-07-12T17:00:00Z,30.3085,-88.1395,0.0,30.55,2 
DISL,ioos:station:DISL:CATA:1,2010-07-12T17:30:00Z,30.3085,-88.1395,0.0,30.63,2 
DISL,ioos:station:DISL:CATA:1,2010-07-12T18:00:00Z,30.3085,-88.1395,0.0,30.74,2 
DISL,ioos:station:DISL:CATA:1,2010-07-12T18:30:00Z,30.3085,-88.1395,0.0,30.82,2 
DISL,ioos:station:DISL:CATA:1,2010-07-12T19:00:00Z,30.3085,-88.1395,0.0,30.89,2 
DISL,ioos:station:DISL:CATA:1,2010-07-12T19:30:00Z,30.3085,-88.1395,0.0,30.96,2 
DISL,ioos:station:DISL:CATA:1,2010-07-12T20:00:00Z,30.3085,-88.1395,0.0,31.02,2 
DISL,ioos:station:DISL:CATA:1,2010-07-12T20:30:00Z,30.3085,-88.1395,0.0,31.0,2 
DISL,ioos:station:DISL:CATA:1,2010-07-12T21:00:00Z,30.3085,-88.1395,0.0,30.97,2 
DISL,ioos:station:DISL:CATA:1,2010-07-12T21:30:00Z,30.3085,-88.1395,0.0,30.98,2 
DISL,ioos:station:DISL:CATA:1,2010-07-12T22:00:00Z,30.3085,-88.1395,0.0,30.93,2 
DISL,ioos:station:DISL:CATA:1,2010-07-12T22:30:00Z,30.3085,-88.1395,0.0,31.02,2 
DISL,ioos:station:DISL:CATA:1,2010-07-12T23:00:00Z,30.3085,-88.1395,0.0,30.26,2 
DISL,ioos:station:DISL:CATA:1,2010-07-12T23:30:00Z,30.3085,-88.1395,0.0,30.21,2 
DISL,ioos:station:DISL:CATA:1,2010-07-13T00:00:00Z,30.3085,-88.1395,0.0,30.13,2 
DISL,ioos:station:DISL:CATA:1,2010-07-13T00:30:00Z,30.3085,-88.1395,0.0,30.07,2 
DISL,ioos:station:DISL:CATA:1,2010-07-13T01:00:00Z,30.3085,-88.1395,0.0,30.02,2 
DISL,ioos:station:DISL:CATA:1,2010-07-13T01:30:00Z,30.3085,-88.1395,0.0,29.95,2 
DISL,ioos:station:DISL:CATA:1,2010-07-13T02:00:00Z,30.3085,-88.1395,0.0,29.97,2 
DISL,ioos:station:DISL:CATA:1,2010-07-13T02:30:00Z,30.3085,-88.1395,0.0,29.96,2 
DISL,ioos:station:DISL:CATA:1,2010-07-13T03:00:00Z,30.3085,-88.1395,0.0,30.04,2 
DISL,ioos:station:DISL:CATA:1,2010-07-13T03:30:00Z,30.3085,-88.1395,0.0,30.03,2 